• en France
  • Liste des pays
  • À 7 jours
  • Température de l'eau
  • Carte satellitaire
  • Carte météo
  • Widgets météo
  • user-avatar
    Se connecter

    Météo par heure à Ordino

    Ce jour, 19 Janvier, Vendredi

    Heure Température Précipitation Vent Pression Humidité
    00:00 -1°C° 0 mm 2 m/s 633 mmHg 73%
    01:00 -1°C° 0 mm 2 m/s 633 mmHg 77%
    02:00 -1°C° 0 mm 2 m/s 632 mmHg 80%
    03:00 -1°C° 0 mm 2 m/s 632 mmHg 83%
    04:00 -1°C° 0 mm 2 m/s 632 mmHg 83%
    05:00 -1°C° 0 mm 2 m/s 632 mmHg 84%
    06:00 -2°C° 0 mm 2 m/s 631 mmHg 84%
    07:00 -1°C° 0 mm 2 m/s 632 mmHg 80%
    08:00 +1°C° 0 mm 2 m/s 632 mmHg 76%
    09:00 +2°C° 0 mm 2 m/s 633 mmHg 72%
    10:00 +3°C° 0 mm 2 m/s 633 mmHg 70%
    11:00 +4°C° 0 mm 2 m/s 634 mmHg 68%
    12:00 +4°C° 0 mm 3 m/s 634 mmHg 66%
    13:00 +4°C° 0 mm 3 m/s 634 mmHg 67%
    14:00 +4°C° 0 mm 3 m/s 634 mmHg 67%
    15:00 +3°C° 0 mm 3 m/s 633 mmHg 67%
    16:00 +2°C° 0 mm 3 m/s 633 mmHg 71%
    17:00 0°C° 0 mm 3 m/s 633 mmHg 75%
    18:00 -2°C° 0 mm 2 m/s 633 mmHg 79%
    19:00 -2°C° 0 mm 3 m/s 633 mmHg 77%
    20:00 -2°C° 0 mm 3 m/s 633 mmHg 76%
    21:00 -4°C° 0 mm 3 m/s 633 mmHg 74%
    22:00 -2°C° 0 mm 3 m/s 634 mmHg 75%
    23:00 -2°C° 0 mm 3 m/s 634 mmHg 75%

    Demain, 20 Janvier, Samedi

    Heure Température Précipitation Vent Pression Humidité
    00:00 -2°C° 0 mm 3 m/s 634 mmHg 76%
    01:00 -4°C° 0 mm 3 m/s 634 mmHg 77%
    02:00 -3°C° 0 mm 2 m/s 634 mmHg 78%
    03:00 -3°C° 0 mm 2 m/s 633 mmHg 80%
    04:00 -3°C° 0 mm 2 m/s 633 mmHg 79%
    05:00 -3°C° 0 mm 2 m/s 633 mmHg 78%
    06:00 -4°C° 0 mm 2 m/s 633 mmHg 77%
    07:00 -2°C° 0 mm 2 m/s 633 mmHg 73%
    08:00 +1°C° 0 mm 1 m/s 634 mmHg 69%
    09:00 +2°C° 0 mm 1 m/s 634 mmHg 65%
    10:00 +2°C° 0,1 mm 2 m/s 634 mmHg 65%
    11:00 +3°C° 0,1 mm 2 m/s 634 mmHg 65%
    12:00 +3°C° 0,1 mm 3 m/s 634 mmHg 65%
    13:00 +3°C° 0,4 mm 3 m/s 634 mmHg 69%
    14:00 +3°C° 0,4 mm 3 m/s 633 mmHg 73%
    15:00 +3°C° 0,4 mm 3 m/s 633 mmHg 77%
    16:00 +3°C° 0,5 mm 3 m/s 633 mmHg 80%
    17:00 +1°C° 0,5 mm 4 m/s 632 mmHg 84%
    18:00 +1°C° 0,5 mm 4 m/s 632 mmHg 87%
    19:00 +1°C° 0,3 mm 4 m/s 633 mmHg 87%
    20:00 +1°C° 0,3 mm 4 m/s 633 mmHg 87%
    21:00 +2°C° 0,3 mm 3 m/s 633 mmHg 88%
    22:00 +2°C° 0,5 mm 3 m/s 633 mmHg 88%
    23:00 +2°C° 0,5 mm 3 m/s 634 mmHg 89%

    Après-demain, 21 Janvier, Dimanche

    Heure Température Précipitation Vent Pression Humidité
    00:00 +3°C° 0,5 mm 3 m/s 634 mmHg 90%
    01:00 +3°C° 0,6 mm 3 m/s 634 mmHg 90%
    02:00 +3°C° 0,6 mm 3 m/s 634 mmHg 90%
    03:00 +3°C° 0,6 mm 3 m/s 634 mmHg 90%
    04:00 +3°C° 0,8 mm 3 m/s 634 mmHg 90%
    05:00 +3°C° 0,8 mm 3 m/s 634 mmHg 90%
    06:00 +3°C° 0,8 mm 3 m/s 635 mmHg 90%
    07:00 +3°C° 0,4 mm 3 m/s 635 mmHg 89%
    08:00 +3°C° 0,4 mm 3 m/s 635 mmHg 88%
    09:00 +3°C° 0,4 mm 3 m/s 636 mmHg 86%
    10:00 +4°C° 0,2 mm 3 m/s 636 mmHg 84%
    11:00 +5°C° 0,2 mm 3 m/s 637 mmHg 82%
    12:00 +6°C° 0,2 mm 4 m/s 637 mmHg 79%
    13:00 +6°C° 0,1 mm 4 m/s 637 mmHg 79%
    14:00 +7°C° 0,1 mm 3 m/s 637 mmHg 79%
    15:00 +7°C° 0,1 mm 3 m/s 637 mmHg 79%
    16:00 +5°C° 0 mm 3 m/s 637 mmHg 81%
    17:00 +4°C° 0 mm 3 m/s 637 mmHg 84%
    18:00 +3°C° 0 mm 3 m/s 637 mmHg 86%
    19:00 +3°C° 0 mm 3 m/s 637 mmHg 86%
    20:00 +3°C° 0 mm 3 m/s 637 mmHg 85%
    21:00 +2°C° 0 mm 3 m/s 637 mmHg 85%
    22:00 +2°C° 0 mm 3 m/s 637 mmHg 85%
    23:00 +2°C° 0 mm 3 m/s 637 mmHg 85%

    22 Janvier, Lundi

    Heure Température Précipitation Vent Pression Humidité
    00:00 +2°C° 0 mm 3 m/s 637 mmHg 84%
    01:00 +1°C° 0 mm 3 m/s 637 mmHg 84%
    02:00 +1°C° 0 mm 3 m/s 637 mmHg 83%
    03:00 +1°C° 0 mm 3 m/s 637 mmHg 82%
    04:00 +1°C° 0 mm 3 m/s 637 mmHg 83%
    05:00 +1°C° 0 mm 3 m/s 636 mmHg 84%
    06:00 +1°C° 0 mm 3 m/s 636 mmHg 84%
    07:00 +1°C° 0 mm 3 m/s 637 mmHg 81%
    08:00 +2°C° 0 mm 3 m/s 637 mmHg 78%
    09:00 +3°C° 0 mm 3 m/s 638 mmHg 74%
    10:00 +4°C° 0 mm 3 m/s 638 mmHg 71%
    11:00 +7°C° 0 mm 3 m/s 639 mmHg 68%
    12:00 +8°C° 0 mm 3 m/s 639 mmHg 64%
    13:00 +8°C° 0 mm 3 m/s 639 mmHg 66%
    14:00 +8°C° 0 mm 3 m/s 638 mmHg 67%
    15:00 +7°C° 0 mm 3 m/s 638 mmHg 69%
    16:00 +6°C° 0 mm 2 m/s 638 mmHg 74%
    17:00 +4°C° 0 mm 2 m/s 638 mmHg 80%
    18:00 +2°C° 0 mm 2 m/s 637 mmHg 86%
    19:00 +2°C° 0 mm 2 m/s 637 mmHg 82%
    20:00 +2°C° 0 mm 2 m/s 638 mmHg 78%
    21:00 +2°C° 0 mm 2 m/s 638 mmHg 74%
    22:00 +2°C° 0 mm 2 m/s 638 mmHg 75%
    23:00 +2°C° 0 mm 2 m/s 638 mmHg 75%

    23 Janvier, Mardi

    Heure Température Précipitation Vent Pression Humidité
    00:00 +2°C° 0 mm 2 m/s 638 mmHg 76%
    01:00 +2°C° 0 mm 2 m/s 638 mmHg 77%
    02:00 +2°C° 0 mm 2 m/s 638 mmHg 79%
    03:00 +2°C° 0 mm 2 m/s 638 mmHg 80%
    04:00 +2°C° 0 mm 2 m/s 638 mmHg 81%
    05:00 +2°C° 0 mm 2 m/s 638 mmHg 82%
    06:00 +2°C° 0 mm 2 m/s 638 mmHg 83%
    07:00 +2°C° 0 mm 2 m/s 638 mmHg 81%
    08:00 +3°C° 0 mm 2 m/s 639 mmHg 79%
    09:00 +4°C° 0 mm 2 m/s 640 mmHg 77%
    10:00 +6°C° 0 mm 2 m/s 640 mmHg 73%
    11:00 +7°C° 0 mm 2 m/s 641 mmHg 69%
    12:00 +10°C° 0 mm 1 m/s 641 mmHg 65%
    13:00 +10°C° 0 mm 1 m/s 641 mmHg 66%
    14:00 +9°C° 0 mm 1 m/s 640 mmHg 67%
    15:00 +9°C° 0 mm 1 m/s 640 mmHg 68%
    16:00 +8°C° 0 mm 1 m/s 640 mmHg 74%
    17:00 +6°C° 0 mm 1 m/s 639 mmHg 79%
    18:00 +4°C° 0 mm 1 m/s 639 mmHg 85%
    19:00 +4°C° 0 mm 1 m/s 639 mmHg 84%
    20:00 +4°C° 0 mm 1 m/s 639 mmHg 83%
    21:00 +3°C° 0 mm 1 m/s 639 mmHg 82%
    22:00 +3°C° 0 mm 1 m/s 639 mmHg 81%
    23:00 +3°C° 0 mm 1 m/s 638 mmHg 80%

    24 Janvier, Mercredi

    Heure Température Précipitation Vent Pression Humidité
    00:00 +3°C° 0 mm 1 m/s 638 mmHg 79%
    01:00 +3°C° 0 mm 1 m/s 638 mmHg 79%
    02:00 +3°C° 0 mm 1 m/s 638 mmHg 79%
    03:00 +3°C° 0 mm 1 m/s 637 mmHg 79%
    04:00 +3°C° 0 mm 1 m/s 637 mmHg 79%
    05:00 +3°C° 0 mm 1 m/s 637 mmHg 79%
    06:00 +3°C° 0 mm 1 m/s 637 mmHg 79%
    07:00 +4°C° 0 mm 1 m/s 638 mmHg 76%
    08:00 +5°C° 0 mm 1 m/s 638 mmHg 73%
    09:00 +6°C° 0 mm 1 m/s 638 mmHg 70%
    10:00 +8°C° 0 mm 1 m/s 639 mmHg 66%
    11:00 +9°C° 0 mm 1 m/s 639 mmHg 61%
    12:00 +10°C° 0 mm 2 m/s 640 mmHg 56%
    13:00 +10°C° 0 mm 2 m/s 639 mmHg 57%
    14:00 +9°C° 0 mm 2 m/s 639 mmHg 59%
    15:00 +9°C° 0 mm 2 m/s 638 mmHg 60%
    16:00 +7°C° 0 mm 2 m/s 638 mmHg 66%
    17:00 +6°C° 0 mm 1 m/s 637 mmHg 72%
    18:00 +4°C° 0 mm 1 m/s 636 mmHg 77%
    19:00 +3°C° 0 mm 1 m/s 636 mmHg 74%
    20:00 +3°C° 0 mm 1 m/s 636 mmHg 70%
    21:00 +3°C° 0 mm 1 m/s 636 mmHg 66%
    22:00 +2°C° 0 mm 1 m/s 636 mmHg 63%
    23:00 +2°C° 0 mm 1 m/s 635 mmHg 60%
    Voir plus